Regional Weather Roundup
Issued by NWS

Home | Current Version | Previous Version | Text Only | Print | Product List | Glossary Off
Versions: 1 2 3 4 5 6 7 8 9 10 11 12 13 14 15 16 17 18 19 20 21 22 23 24 25 26 27 28 29 30 31 32 33 34 35 36 37 38 39 40 41 42 43 44 45 46 47 48 49 50

000
ASUS43 KMKX 111621
RWRWI

WISCONSIN REGIONAL WEATHER ROUNDUP
NATIONAL WEATHER SERVICE MILWAUKEE/SULLIVAN WI
1000 AM CST THU FEB 11 2016

NOTE: "FAIR" INDICATES FEW OR NO CLOUDS BELOW 12,000 FEET WITH NO
SIGNIFICANT WEATHER AND/OR OBSTRUCTIONS TO VISIBILITY.

WIZ001-002-006>008-014>016-023>028-111700-
NORTHWEST WISCONSIN

CITY           SKY/WX    TMP DP  RH WIND       PRES   REMARKS
SUPERIOR ARPT  CLOUDY    -2  -9  71 SW7       30.33R WCI -15
ASHLAND        CLOUDY     1  -3  83 SW9       30.29R WCI -14
HAYWARD        CLOUDY    -4  -9  79 S5        30.27R WCI -15
SIREN          SUNNY      2  -8  63 CALM      30.30S
CUMBERLAND     SUNNY     -4 -13  65 CALM      30.28S
RICE LAKE      SUNNY     -3  -8  78 CALM      30.31S
CHETEK         SUNNY      1  -7  71 CALM      30.30S
LADYSMITH      MOSUNNY   -1  -5  84 CALM      30.29R
EAU CLAIRE     SUNNY      3  -6  66 CALM      30.31S
MENOMONIE      SUNNY     11  -1  57 W5        30.33R WCI   3
NEW RICHMOND   CLOUDY     1  -6  73 CALM      30.31S
OSCEOLA        SUNNY      3  -6  66 CALM      30.35F
$$

WIZ003>005-009-010-017-018-111700-
NORTH CENTRAL WISCONSIN

CITY           SKY/WX    TMP DP  RH WIND       PRES   REMARKS
MANITOWISH WTR MOSUNNY    4  -3  74 NW6       30.18R WCI  -7
ARBOR VITAE    SUNNY      6   0  74 CALM      30.17R
WOODRUFF       SUNNY      6   0  74 CALM      30.17R
RHINELANDER    MOSUNNY    7  -1  70 W8        30.18S HAZE    WCI  -6
EAGLE RIVER    MOSUNNY    7  -1  67 N9        30.15S WCI  -6
LAND O LAKES   CLOUDY     9   1  70 NW7G16    30.15S WCI  -2
PHILLIPS       LGT SNOW   0  -4  86 W5        30.22R WCI -10
TOMAHAWK       SUNNY      5  -1  74 W3        30.21R
MEDFORD        SUNNY      1  -4  82 CALM      30.22R
MERRILL        SUNNY      5  -3  70 CALM      30.23R
$$

WIZ029-030-035-036-043>047-111700-
CENTRAL WISCONSIN

CITY           SKY/WX    TMP DP  RH WIND       PRES   REMARKS
WAUSAU         SUNNY      5  -3  69 W8        30.24R WCI  -8
MOSINEE        SUNNY      5   0  78 CALM      30.25R
MARSHFIELD     SUNNY      2  -6  69 W5        30.25R WCI  -8
STEVENS POINT  SUNNY      6  -3  67 W5        30.27R WCI  -3
WAUPACA        SUNNY     14   0  52 NW6       30.28S WCI   5
WAUTOMA        SUNNY     10  -2  58 W5        30.30S WCI   2
WISC RAPIDS    SUNNY      5  -2  72 CALM      30.29S
CAMP DOUGLAS   SUNNY      5   0  78 NW5       30.31R WCI  -4
$$

WIZ011>013-019>022-031-037>040-048>050-111700-
NORTHEAST WISCONSIN

CITY           SKY/WX    TMP DP  RH WIND       PRES   REMARKS
ANTIGO         SUNNY      4  -2  74 NW7       30.19R WCI  -8
SHAWANO        SUNNY     11  -1  60 NW5       30.27S WCI   3
OCONTO         SUNNY      9  -1  62 W7        30.27S WCI  -2
STURGEON BAY   SUNNY     10   0  61 W8        30.27R WCI  -1
GREEN BAY      SUNNY      7  -1  70 W8        30.28R WCI  -6
MANITOWOC      SUNNY     13   1  59 W8        30.28S WCI   2
APPLETON       SUNNY      7  -4  61 W9        30.25R WCI  -7
CLINTONVILLE   SUNNY      9  -2  61 CALM      30.27S
OSHKOSH        SUNNY      5  -3  69 W6        30.28S WCI  -6
$$

WIZ032>034-041-042-053>061-111700-
SOUTHWEST WISCONSIN

CITY           SKY/WX    TMP DP  RH WIND       PRES   REMARKS
LA CROSSE      SUNNY      6  -2  69 CALM      30.36R
SPARTA         SUNNY      4  -5  67 CALM      30.33S
VIROQUA        SUNNY      2  -4  73 CALM      30.28S
BOSCOBEL       SUNNY     10  -1  61 CALM      30.36S
PRAIRIE DU CHI SUNNY      8  -3  60 CALM      30.36S
PLATTEVILLE    SUNNY      7  -1  69 CALM      30.31S
$$

WIZ056-057-062-063-064-067-068-111700-
SOUTH CENTRAL WISCONSIN

CITY           SKY/WX    TMP DP  RH WIND       PRES   REMARKS
REEDSBURG      SUNNY      5  -3  69 W6        30.32R WCI  -6
BARABOO/DELLS  SUNNY      6  -4  65 W6        30.30S WCI  -5
LONE ROCK      SUNNY      6  -2  69 CALM      30.34F
MINERAL POINT  SUNNY     10   0  61 CALM      30.29S
MADISON        SUNNY      9  -3  58 NW6       30.31S WCI  -1
MIDDLETON      SUNNY     11   0  61 NW3       30.32S
WATERTOWN      SUNNY     10   1  66 NW6       30.30S WCI   0
MONROE         SUNNY     12   1  62 N8        30.29S WCI   1
JANESVILLE     SUNNY     14   1  57 NW12      30.32R WCI   0
$$

WIZ051-052-058>065-066-070>072-111700-
SOUTHEAST WISCONSIN

CITY           SKY/WX    TMP DP  RH WIND       PRES   REMARKS
MILWAUKEE      SUNNY     12  -1  56 W5        30.30R WCI   4
WAUKESHA       NOT AVBL
MILWAUKEE/TIMM SUNNY    N/A N/A N/A NW6       30.30R
RACINE         SUNNY     11  -1  58 W8        30.32R WCI  -1
BURLINGTON     SUNNY     11  -1  57 NW8       30.30S WCI   0
KENOSHA        SUNNY     13   1  59 NW9       30.30R WCI   1
FOND DU LAC    SUNNY      9  -1  64 N5        30.29S WCI   1
SHEBOYGAN      SUNNY      8  -2  63 NW8       30.28R WCI  -4
WEST BEND      SUNNY     10   0  61 CALM      30.28R
JUNEAU         SUNNY      7  -2  65 NW5       30.30R WCI  -1
$$

LSZ147-162-111700-
LAKE SUPERIOR

STATION/POSITION TIME  TEMP    WIND        PRES    WAVE
                       AIR SEA DIR/SP/G            HT/PER
                 (UTC) (F)     (DEG/KT/KT) (MB)    (FT/S)
DEVILS ISLAND    1500    9     290/  5/  6 1026.3F
SAXON HARBOR     1500    6                 1024.7F
$$

LMZ867-665-643>646-111700-
LAKE MICHIGAN

STATION/POSITION TIME  TEMP    WIND        PRES    WAVE
                       AIR SEA DIR/SP/G            HT/PER
                 (UTC) (F)     (DEG/KT/KT) (MB)    (FT/S)
CHAMBERS ISLAND  1500   13     310/ 12/ 17 1023.4F
ALGOMA LAKESHORE 1511          310/  6/  9   N/A
KEWAUNEE LAKESHO 1500    7     300/  5/  9 1023.8R
SHEBOYGAN LAKESH 1500    7     300/ 11/ 14 1027.1R
PORT WASHINGTON  1500    9     310/  7/ 12 1026.8R
MILWAUKEE LAKESH 1510   10     310/ 10/ 11   N/A
KENOSHA   LAKESH 1500    9     300/ 11/ 16 1025.7R
$$

TC  - TEMPERATURE IN CELSIUS
VSB - VISIBILITY IN STATUTE MILES
WCI - WIND CHILL INDEX
HX  - HEAT INDEX




USA.gov is the U.S. government's official web portal to all federal, state and local government web resources and services.